Helicity
38 39 32 44 45 37 41 40 36 42 43 47 54 69 70 64 8 9 68 44 26 35 16 25 16 27 11 28 42 40 45 62 89 82 164 166 165 183 159 180 180 185 196 168 162
43 36 31 33 32 26 24 28 25 17 23 44 62 78 75 51 15 71 50 43 40 49 41 63 58 30 22 29 39 40 37 89 116 136 173 192 186 175 156 202 218 198 193 191 189
47 43 34 26 30 33 31 32 31 30 22 35 64 93 82 18 6 67 46 42 40 33 41 43 45 35 30 33 52 52 72 71 102 147 150 176 185 160 155 198 205 214 200 198 200
38 39 49 55 52 45 36 33 41 33 48 43 48 95 92 12 96 68 24 8 11 13 32 47 52 46 43 49 56 47 60 84 104 147 135 170 118 142 192 186 157 169 182 196 233
55 56 48 66 56 60 47 29 40 56 47 53 38 79 8 50 91 52 24 23 18 18 41 42 58 48 59 48 40 30 53 65 90 143 158 132 168 162 182 161 193 206 218 233 234
80 56 55 65 58 63 57 72 65 57 38 42 46 49 -11 38 73 70 55 34 45 44 56 61 76 78 65 64 65 71 45 55 83 89 113 123 139 132 152 159 184 193 197 201 215
104 83 79 84 84 72 59 62 75 73 39 39 41 10 -1 29 74 63 46 58 44 46 43 63 64 66 81 76 85 69 52 43 52 93 127 154 130 176 183 194 209 206 208 204 205
146 166 131 125 112 90 86 50 84 59 55 46 31 15 30 86 74 41 45 52 64 56 55 49 44 50 63 74 51 48 49 38 130 91 146 110 107 177 178 193 214 225 216 200 192
167 170 156 124 101 87 68 79 70 65 49 41 26 34 9 48 87 87 47 72 77 79 78 61 59 70 43 52 49 52 53 47 72 67 97 80 162 185 179 198 202 190 178 167 156
167 138 140 128 105 89 94 75 80 60 52 61 66 33 51 109 87 62 58 48 79 82 68 63 71 76 68 67 128 174 105 68 57 56 53 54 122 116 105 118 148 154 154 150 142
117 128 127 127 107 116 95 70 36 32 56 60 113 102 142 146 100 71 70 65 77 70 83 110 93 96 144 137 146 126 105 102 113 112 101 78 67 94 108 104 130 134 142 152 161
136 121 116 111 113 107 89 96 120 133 62 30 26 36 85 127 121 74 121 86 93 66 120 102 98 134 112 80 81 84 97 90 76 80 89 70 73 98 101 97 121 146 172 173 163
118 122 100 97 115 110 75 101 96 60 54 59 101 109 109 114 129 70 126 157 128 136 115 123 176 145 104 78 79 61 62 60 78 115 61 87 86 117 108 156 180 198 221 206 205
97 105 101 97 106 114 102 86 78 52 63 46 99 131 84 93 131 79 97 144 193 157 138 152 185 110 101 100 77 94 79 64 87 104 119 105 125 136 93 87 153 195 216 223 228
91 99 103 111 139 113 125 102 77 69 156 108 109 52 51 44 85 89 30 75 71 98 145 179 136 147 151 146 145 145 118 97 90 107 117 118 146 107 169 130 101 147 180 234 241
99 128 136 146 140 129 100 89 93 147 184 148 112 108 97 49 90 81 53 32 66 50 47 33 65 82 55 100 96 139 86 98 114 138 184 120 131 78 123 93 110 198 236 243 216
86 127 139 156 167 119 106 139 224 244 187 164 175 148 122 109 74 53 44 49 90 107 102 109 67 35 48 81 48 74 104 180 173 228 221 171 227 153 221 206 171 181 175 205 169
115 152 177 194 146 130 160 255 245 251 264 191 154 106 122 116 95 69 86 79 64 88 131 163 146 82 67 31 127 121 101 214 249 183 159 169 209 177 239 238 241 224 218 198 180
165 175 165 152 155 148 187 339 311 292 268 214 181 129 109 81 89 82 76 69 81 29 90 127 93 90 47 51 67 111 135 46 121 161 243 207 147 135 159 175 199 184 198 196 164
177 172 164 120 135 158 222 319 309 248 230 194 113 111 113 82 71 78 78 96 57 7 10 108 112 107 98 76 55 64 104 159 173 295 230 208 145 175 79 86 128 172 135 126 112
202 191 163 140 166 233 300 238 249 218 246 199 151 119 102 87 72 78 103 84 78 90 94 81 86 69 101 83 52 93 116 145 146 220 261 246 208 175 147 52 62 72 85 71 88
249 291 190 142 250 238 196 197 222 215 193 150 139 98 76 83 79 71 71 63 114 133 108 104 177 163 90 65 78 74 107 105 141 180 139 114 119 142 90 56 29 41 107 111 103
262 289 179 195 214 172 176 149 172 143 122 101 87 72 89 79 87 36 52 84 87 110 144 155 194 186 108 59 40 76 52 58 62 99 92 131 159 162 153 152 170 183 138 125 136
262 240 230 211 195 125 126 101 103 82 66 83 98 109 66 57 51 90 75 70 94 138 158 158 155 170 153 93 135 90 49 45 48 98 68 90 87 159 196 217 148 120 149 183 160
298 187 180 169 198 187 137 120 88 78 52 58 84 12 37 70 59 36 35 68 84 71 93 158 163 103 64 17 30 33 30 33 53 54 92 65 97 164 184 254 182 315 176 178 148
247 236 240 130 102 89 130 100 75 55 66 53 34 47 68 75 14 104 165 159 153 132 147 89 104 100 114 53 43 29 20 20 44 13 15 79 28 66 140 104 157 195 174 165 136
211 254 169 124 121 118 75 52 46 39 44 -4 26 57 67 13 92 121 125 149 130 137 185 210 117 137 88 68 91 63 2 40 38 78 78 65 83 187 165 125 113 104 172 134 119
Wind_Speed
33 35 38 39 42 45 50 54 56 58 61 64 66 67 67 66 54 38 39 38 41 50 46 42 35 35 30 28 29 27 29 28 22 16 18 16 16 24 24 18 24 25 23 24 30
34 35 36 37 40 43 48 53 57 60 63 67 69 70 69 63 44 43 38 37 42 48 41 41 38 35 30 29 29 30 34 29 26 20 16 17 16 17 17 17 19 20 23 26 29
34 34 34 37 41 44 49 52 57 61 63 67 70 71 69 54 41 41 39 41 44 44 40 39 37 33 33 31 31 30 38 28 24 26 27 17 21 25 12 22 25 19 24 27 30
34 34 34 36 42 46 49 53 57 62 66 67 69 71 68 41 45 36 39 42 46 43 40 37 36 33 33 33 32 35 32 34 30 30 26 21 15 18 28 24 20 20 23 26 31
38 37 40 40 43 47 49 54 56 64 66 68 69 69 56 46 37 38 38 40 39 38 40 39 35 36 35 34 36 39 37 35 31 30 28 21 24 21 20 21 22 24 26 30 32
41 40 39 41 45 49 51 51 57 59 65 65 66 66 51 53 33 38 37 36 38 38 39 40 37 37 36 37 43 39 40 38 37 35 29 23 22 24 20 18 22 25 28 30 32
42 43 44 45 48 49 48 50 53 56 61 63 63 56 52 51 37 38 37 35 35 36 35 37 39 38 36 37 39 42 54 41 37 30 34 20 31 29 15 19 23 25 27 29 32
45 48 49 48 49 48 47 50 50 53 54 58 59 52 52 37 43 44 33 30 31 32 30 34 36 34 35 35 36 42 47 50 31 34 36 24 42 23 18 18 23 26 28 29 33
51 51 52 52 51 52 50 46 49 53 55 51 49 47 52 39 33 34 33 32 29 30 34 33 33 34 32 36 40 32 45 45 41 35 41 34 43 28 20 21 23 23 25 28 31
50 49 49 49 49 46 44 48 49 52 44 45 45 49 38 37 35 35 27 25 30 28 34 35 34 37 36 37 46 45 47 45 49 39 40 43 48 33 26 24 23 26 29 29 32
46 47 46 44 43 36 37 46 53 48 41 47 45 47 40 40 37 35 29 27 31 37 41 35 43 43 43 42 43 46 51 57 50 45 49 49 52 38 30 27 27 27 30 33 35
43 46 42 39 35 32 38 45 47 47 63 48 49 53 50 50 52 43 33 34 34 41 36 44 51 47 41 41 44 47 52 54 55 48 52 54 55 40 33 34 31 31 33 36 37
40 41 37 32 29 34 39 41 40 43 60 57 51 53 49 40 51 48 33 41 45 46 46 58 53 40 48 53 54 54 55 57 58 53 55 62 64 50 41 36 36 37 37 38 39
34 33 31 24 35 35 40 35 34 40 65 58 47 41 38 37 49 39 34 38 45 56 56 61 55 58 59 59 57 70 56 60 59 60 68 46 78 46 42 42 41 39 40 39 39
36 33 28 31 34 37 37 25 28 36 75 44 40 31 29 30 40 40 28 32 46 45 47 51 51 54 56 55 51 61 55 57 59 65 71 62 69 67 46 52 45 40 38 38 38
30 29 23 37 37 34 25 22 26 48 71 45 36 36 33 32 35 33 33 31 37 44 49 56 56 54 56 57 56 61 61 62 62 64 79 73 69 83 63 59 47 37 37 35 35
25 21 26 30 34 24 15 20 47 64 42 46 44 37 37 35 34 37 38 37 43 50 52 51 53 52 50 60 55 55 59 72 74 72 87 71 69 70 59 50 45 36 35 34 32
23 20 25 26 24 15 16 34 64 51 47 38 35 32 39 36 45 43 44 46 43 45 57 59 60 42 39 46 56 57 60 71 82 85 88 57 75 73 55 50 39 30 30 30 29
16 22 28 25 21 20 24 54 57 48 38 35 32 39 42 44 45 45 47 52 46 39 49 55 55 43 43 43 46 57 65 64 82 89 89 83 70 62 52 48 39 35 31 29 26
26 25 31 20 20 24 36 51 48 38 36 33 43 38 44 42 46 46 46 38 44 40 40 53 69 54 54 53 54 57 53 58 57 79 87 80 79 81 63 51 40 36 33 26 23
29 31 29 20 22 33 52 47 37 36 36 38 39 43 44 48 50 51 48 43 43 45 45 53 62 69 57 56 64 52 60 59 63 59 77 82 73 52 56 42 34 29 26 23 24
38 44 32 25 38 40 46 38 37 39 38 39 42 46 50 46 54 50 51 46 35 41 50 47 59 70 70 59 50 56 60 58 72 70 71 80 86 44 41 27 21 22 23 25 29
39 41 32 37 51 45 39 40 40 41 42 42 46 44 41 49 55 50 53 44 45 51 49 48 58 74 77 62 47 57 55 58 63 74 86 85 73 43 40 37 32 26 27 29 30
37 41 35 42 44 43 42 47 46 44 49 46 46 46 52 56 53 56 52 49 44 47 52 52 60 65 77 63 58 60 53 52 59 67 70 68 68 59 47 38 35 32 28 25 27
43 46 40 45 53 46 44 47 46 47 44 38 45 46 48 54 55 59 63 64 57 50 42 40 58 55 56 60 62 60 61 60 61 59 61 60 54 50 46 48 35 25 22 24 28
49 46 42 43 40 43 43 51 48 43 44 43 49 45 45 52 54 69 65 59 58 42 41 32 49 45 52 48 48 42 34 37 37 41 48 62 77 62 50 51 30 20 16 19 21
43 40 41 45 44 47 54 50 45 42 50 46 45 50 52 56 62 66 65 58 48 48 40 43 44 43 46 42 47 53 42 27 25 23 28 39 85 44 36 26 10 8 7 11 13
Wind_Direction
331 335 333 336 335 333 328 325 323 324 323 325 324 324 324 326 336 352 340 346 343 332 333 336 341 338 344 345 342 344 326 315 322 320 335 354 351 339 342 355 335 334 339 338 332
322 326 329 332 331 332 328 323 322 324 326 328 325 323 326 331 342 338 348 351 346 336 341 342 339 339 336 338 334 326 315 320 326 326 335 343 353 357 352 1 356 354 352 348 343
316 320 325 326 324 323 321 325 327 325 328 327 321 319 321 332 329 337 350 340 334 336 339 338 337 337 326 328 325 326 310 322 319 310 312 336 332 332 360 334 331 336 335 340 338
308 312 318 322 317 317 319 323 326 325 319 319 317 314 308 340 322 341 349 339 327 329 333 337 335 331 325 321 325 312 315 304 304 308 313 326 0 343 327 330 349 349 346 342 337
301 305 308 313 313 314 318 320 326 321 319 318 317 312 327 324 328 339 347 341 339 336 331 328 334 326 323 324 317 306 301 301 303 307 310 331 325 330 339 340 338 338 339 335 333
294 300 305 307 308 311 315 322 324 323 317 321 318 315 324 317 342 337 337 339 337 335 331 325 326 324 324 320 305 312 302 299 296 296 304 314 317 321 327 331 329 328 330 334 336
293 296 300 302 304 310 316 320 323 323 318 317 318 324 319 313 334 334 331 332 334 333 334 331 325 324 326 320 316 309 291 299 296 298 300 308 301 303 312 314 315 319 323 327 330
294 297 297 299 301 307 312 314 319 320 322 318 317 319 311 330 322 320 326 330 331 334 338 336 333 332 326 325 321 309 299 293 305 294 299 292 297 301 301 301 305 309 314 319 323
290 293 295 297 299 302 306 312 315 315 315 319 317 320 311 327 332 334 328 323 329 330 328 331 331 326 327 320 314 316 302 301 303 300 298 286 299 300 294 293 300 305 309 314 319
289 292 294 295 297 301 305 307 312 314 317 317 314 311 314 316 326 327 335 335 326 325 320 319 319 312 313 311 306 307 306 303 299 306 294 289 292 299 295 290 291 298 303 308 312
292 292 293 296 298 302 307 306 304 307 311 302 307 306 313 315 319 320 325 323 320 309 303 311 304 302 306 308 309 308 303 298 304 307 301 295 293 292 290 288 288 290 295 301 306
290 292 293 294 295 298 302 299 303 310 301 301 298 297 299 303 302 304 313 304 302 298 303 301 295 302 307 307 303 300 300 299 298 300 298 296 293 289 285 285 286 287 291 296 302
288 289 291 292 292 294 294 299 310 312 301 303 301 298 298 298 296 295 295 298 295 293 294 292 300 303 300 298 296 296 294 295 293 298 297 295 290 284 281 282 285 287 292 296 300
285 290 289 289 290 293 294 301 311 314 297 299 303 310 312 307 303 303 291 291 294 292 292 293 296 293 293 292 294 292 293 291 291 293 291 294 292 289 280 278 280 281 286 292 299
276 280 281 282 293 290 299 306 315 314 290 306 308 326 323 314 318 322 318 293 289 295 294 296 299 296 293 295 297 294 298 293 291 288 289 283 290 293 284 282 279 277 285 293 300
270 274 276 282 288 295 305 306 307 294 285 299 312 310 314 314 319 326 321 314 314 298 295 293 297 297 295 296 296 297 295 292 290 288 280 284 282 286 287 284 285 279 285 292 299
262 266 273 286 283 293 290 293 286 281 301 296 300 304 308 311 314 315 311 307 305 303 300 304 297 294 296 295 295 296 293 289 285 279 282 290 283 278 296 299 294 282 287 293 301
251 260 274 290 293 281 278 280 276 290 289 303 305 304 302 308 309 310 308 304 304 303 302 302 300 304 306 295 297 295 286 283 289 286 290 286 284 287 294 299 300 292 292 297 303
233 264 270 276 287 273 267 270 284 286 295 293 299 294 296 302 306 308 305 301 306 301 300 304 302 311 307 308 304 302 287 289 286 287 288 284 288 294 295 295 295 293 294 298 306
244 257 264 266 278 264 270 274 284 294 298 294 285 295 296 302 302 304 305 311 309 304 301 304 300 304 306 306 298 290 303 293 286 287 283 285 285 287 289 288 290 289 290 299 310
248 257 265 261 271 261 268 275 282 289 293 293 290 294 297 299 297 299 302 306 309 310 309 302 298 298 302 301 300 298 291 288 291 288 287 288 289 306 303 292 286 284 291 302 311
248 257 262 252 254 263 265 277 283 284 289 291 296 293 293 298 297 295 294 299 315 317 308 309 305 299 299 304 305 299 298 296 284 288 286 285 282 303 315 313 296 291 292 303 310
246 262 260 254 255 258 272 272 278 279 282 288 289 291 299 295 296 293 295 304 301 304 309 313 301 301 301 305 302 294 291 293 290 289 284 281 287 308 302 297 292 285 286 298 307
247 250 255 253 264 259 261 268 273 280 279 284 289 294 293 291 290 295 297 304 307 306 308 309 295 293 296 300 309 305 302 298 294 288 290 284 288 288 291 290 292 292 289 301 312
246 253 252 250 253 263 264 273 269 276 280 286 291 287 290 290 291 291 293 297 302 306 304 301 295 295 294 296 298 296 296 298 294 291 285 294 295 296 285 289 295 288 284 297 307
245 254 254 261 254 254 261 268 270 274 278 284 285 294 293 289 290 292 299 304 306 315 308 303 300 305 302 303 298 293 289 294 284 290 284 283 237 293 295 289 284 276 271 296 310
249 258 256 257 255 258 257 265 273 277 282 285 291 294 293 294 297 299 299 300 301 304 303 306 306 312 306 312 307 302 244 244 240 248 238 233 254 299 298 297 270 251 238 296 319